Showing default

AISSAT 2, 40075

Orbit data source: Space-Track

AISSAT 2, 40075 is a payload satellite owned by NSC (NO) in SSO that was launched on Tue, 08 Jul 2014 UTC via a SOYUZ-2-1B launch vehicle from the Tyuratam Missile And Space Complex (TTMTR). Payload-class satellites include a variety of spacecraft equipped with specific instruments for various scientific and technological missions. These include communications satellites like Starlink; space stations such as the ISS; scientific satellites like the Hubble; Earth observation satellites from companies like Planet Labs, Umbra, and HawkEye 360; GPS; miniature CubeSats for education and research; and military/defense satellites.

Loading next visibility...
Identifier
40075, 2014-037G
Orbit
SSO
Country
Flag of NONO / NOR
Related business
Manufacturer
UTIAS-SFL
Mission
Non-operational Civil Communications
Bus & Motor
GNB, Unknown motor
Mass
7 kg wet, 7 kg dry
Launch date (UTC)
2014-07-08 (11 years ago)
Launch vehicle
SOYUZ-2-1B
Launch site
Tyuratam Missile And Space Complex (TTMTR)
Object type
Payload
Rocket body
Debris
Shape & HBR
Box + 2 Ant, 1.0 m
Radar Cross Section
0.093 m², Medium (>0.1 m² and < 1m²)

Expand to show TLE details & history
Last TLE update: 23 hours ago

TLE from 23 hours ago
0 AISSAT 2
1 40075U 14037G   25301.46807899  .00004152  00000-0  41535-3 0  9996
2 40075  98.3729 254.2605 0003616 312.6316  47.4596 14.92033807612177
Epoch: 2025-10-28T11:14Z
TLE epoch observation values (Epoch: 2025-10-28T11:14:02.024Z)
Latitude
-0.00002°
Longitude
48.69693°
Altitude
592.914 km
Speed
7.564 km/s
True Right ascension
16h 57m 02s
True Declination
0° 00' 00"
Sunlit
Object was in daylight at epoch
Visualization orbit readout
Latitude
Unknown
Longitude
Unknown
Altitude
Unknown
Speed
Unknown
Apparent Right ascension
Unknown
Apparent Declination
Unknown
Sunlit
N/A
Visualization observer readout
Local Sidereal Time
05:35:13
Azimuth
Unknown
Elevation
Unknown
Doppler factor
Unknown
Orbital elements
Apogee altitude
591.161 km
Perigee altitude
586.122 km
Semi-major axis
6,966.778 km
Eccentricity
0.00036
Inclination
98.3729°
RAAN
254.2605°
Arg. of periapsis
312.6316°
True anomaly
47.49014°
Mean anomaly
47.4596°
Eccentric anomaly
47.47487°
Mean motion
3.73246 °/min
Orbital period
96.45 mins
BSTAR
0.00041535
Loading maneuver chart data...
Computing Atmospheric mass density...
Loading historical data...
Loading historical data...
Loading historical data...
Loading historical data...
Loading historical data...
Loading historical data...
Loading historical data...

Documentation

Showing up to 5 results
|